| time (UTC) | temp C | wind direction | speed KPH | gust KPH | rain 1hr cm | rain 24hr cm | rain mn cm | humidity % | barometer mb |
| 20260504050206 | 13 | 243 | 1.6 | 4.8 | 0.00 | 0.00 | 0.00 | 49 | |
| 20260504045206 | 13 | 218 | 1.6 | 3.2 | 0.00 | 0.00 | 0.00 | 49 | |
| 20260504044205 | 13 | 256 | 1.6 | 3.2 | 0.00 | 0.00 | 0.00 | 50 | |
| 20260504043209 | 13 | 263 | 0.0 | 3.2 | 0.00 | 0.00 | 0.00 | 51 | |
| 20260504042206 | 13 | 222 | 0.0 | 1.6 | 0.00 | 0.00 | 0.00 | 51 | |
| 20260504041206 | 13 | 246 | 0.0 | 0.0 | 0.00 | 0.00 | 0.00 | 51 | |
| 20260504040206 | 13 | 246 | 0.0 | 0.0 | 0.00 | 0.00 | 0.00 | 51 | |
| 20260504035205 | 13 | 246 | 0.0 | 0.0 | 0.00 | 0.00 | 0.00 | 50 | |
| 20260504034206 | 13 | 246 | 0.0 | 0.0 | 0.00 | 0.00 | 0.00 | 50 | |
| 20260504033206 | 14 | 246 | 0.0 | 0.0 | 0.00 | 0.00 | 0.00 | 50 | |
| 20260504032206 | 14 | 259 | 0.0 | 1.6 | 0.00 | 0.00 | 0.00 | 50 | |
| 20260504031205 | 14 | 257 | 0.0 | 0.0 | 0.00 | 0.00 | 0.00 | 49 | |
| 20260504030206 | 14 | 257 | 0.0 | 0.0 | 0.00 | 0.00 | 0.00 | 50 | |
| 20260504025206 | 14 | 257 | 0.0 | 0.0 | 0.00 | 0.00 | 0.00 | 49 | |
| 20260504024206 | 15 | 258 | 0.0 | 1.6 | 0.00 | 0.00 | 0.00 | 49 | |
| 20260504023206 | 15 | 257 | 0.0 | 1.6 | 0.00 | 0.00 | 0.00 | 48 | |
| 20260504022205 | 15 | 199 | 0.0 | 0.0 | 0.00 | 0.00 | 0.00 | 48 | |
| 20260504021206 | 16 | 199 | 0.0 | 0.0 | 0.00 | 0.00 | 0.00 | 47 | |
| 20260504020206 | 16 | 199 | 0.0 | 3.2 | 0.00 | 0.00 | 0.00 | 46 | |
| 20260504015206 | 16 | 239 | 0.0 | 3.2 | 0.00 | 0.00 | 0.00 | 45 | |
| 20260504014205 | 16 | 226 | 0.0 | 1.6 | 0.00 | 0.00 | 0.00 | 45 | |
| 20260504013206 | 16 | 2 | 0.0 | 0.0 | 0.00 | 0.00 | 0.00 | 44 | |
| 20260504012205 | 17 | 2 | 0.0 | 0.0 | 0.00 | 0.00 | 0.00 | 44 | |
| 20260504011206 | 18 | 2 | 0.0 | 1.6 | 0.00 | 0.00 | 0.00 | 41 | |
| 20260504010205 | 18 | 216 | 0.0 | 1.6 | 0.00 | 0.00 | 0.00 | 38 | |
| 20260504005206 | 20 | 220 | 0.0 | 1.6 | 0.00 | 0.00 | 0.00 | 36 | |
| 20260504004206 | 20 | 228 | 0.0 | 8.0 | 0.00 | 0.00 | 0.00 | 34 | |
| 20260504003209 | 20 | 337 | 4.8 | 12.9 | 0.00 | 0.00 | 0.00 | 32 | |
| 20260504002205 | 21 | 303 | 3.2 | 16.1 | 0.00 | 0.00 | 0.00 | 31 | |
| 20260504001206 | 21 | 329 | 4.8 | 19.3 | 0.00 | 0.00 | 0.00 | 31 | |
| 20260504000206 | 21 | 310 | 4.8 | 12.9 | 0.00 | 0.00 | 0.00 | 30 | |
| 20260503235205 | 21 | 301 | 8.0 | 12.9 | 0.00 | 0.00 | 0.00 | 31 | |
| 20260503234205 | 21 | 279 | 8.0 | 19.3 | 0.00 | 0.00 | 0.00 | 32 | |
| 20260503233205 | 21 | 325 | 8.0 | 16.1 | 0.00 | 0.00 | 0.00 | 30 | |
| 20260503232206 | 21 | 311 | 8.0 | 19.3 | 0.00 | 0.00 | 0.00 | 31 | |
| 20260503231206 | 21 | 300 | 8.0 | 27.4 | 0.00 | 0.00 | 0.00 | 32 | |
| 20260503230205 | 21 | 293 | 6.4 | 19.3 | 0.00 | 0.00 | 0.00 | 32 | |
| 20260503225206 | 22 | 335 | 8.0 | 14.5 | 0.00 | 0.00 | 0.00 | 34 | |
| 20260503224206 | 21 | 276 | 8.0 | 24.1 | 0.00 | 0.00 | 0.00 | 34 | |
| 20260503223205 | 21 | 268 | 12.9 | 24.1 | 0.00 | 0.00 | 0.00 | 34 | |
| 20260503222205 | 21 | 245 | 11.3 | 20.9 | 0.00 | 0.00 | 0.00 | 34 | |
| 20260503221206 | 21 | 295 | 9.7 | 27.4 | 0.00 | 0.00 | 0.00 | 33 | |
| 20260503220206 | 21 | 300 | 9.7 | 19.3 | 0.00 | 0.00 | 0.00 | 34 | |
| 20260503215205 | 21 | 253 | 9.7 | 29.0 | 0.00 | 0.00 | 0.00 | 36 | |
| 20260503214205 | 21 | 265 | 8.0 | 25.7 | 0.00 | 0.00 | 0.00 | 36 | |
| 20260503213206 | 20 | 274 | 11.3 | 25.7 | 0.00 | 0.00 | 0.00 | 37 | |
| 20260503212206 | 20 | 269 | 8.0 | 29.0 | 0.00 | 0.00 | 0.00 | 38 | |
| 20260503211206 | 21 | 290 | 8.0 | 24.1 | 0.00 | 0.00 | 0.00 | 38 | |
| 20260503210205 | 20 | 270 | 8.0 | 20.9 | 0.00 | 0.00 | 0.00 | 38 | |
| 20260503205206 | 20 | 261 | 11.3 | 32.2 | 0.00 | 0.00 | 0.00 | 38 | |
| 20260503204205 | 20 | 262 | 8.0 | 32.2 | 0.00 | 0.00 | 0.00 | 39 | |
| 20260503203209 | 20 | 247 | 9.7 | 22.5 | 0.00 | 0.00 | 0.00 | 39 | |
| 20260503202206 | 20 | 250 | 9.7 | 35.4 | 0.00 | 0.00 | 0.00 | 40 | |
| 20260503201206 | 20 | 239 | 14.5 | 27.4 | 0.00 | 0.00 | 0.00 | 39 | |
| 20260503200206 | 20 | 268 | 9.7 | 37.0 | 0.00 | 0.00 | 0.00 | 41 | |
| 20260503195207 | 19 | 249 | 11.3 | 29.0 | 0.00 | 0.00 | 0.00 | 40 | |
| 20260503194206 | 18 | 273 | 16.1 | 32.2 | 0.00 | 0.00 | 0.00 | 41 | |
| 20260503193205 | 18 | 296 | 14.5 | 32.2 | 0.00 | 0.00 | 0.00 | 40 | |
| 20260503192206 | 18 | 251 | 9.7 | 27.4 | 0.00 | 0.00 | 0.00 | 41 | |
| 20260503191206 | 18 | 266 | 12.9 | 29.0 | 0.00 | 0.00 | 0.00 | 40 | |
| 20260503190206 | 18 | 240 | 11.3 | 29.0 | 0.00 | 0.00 | 0.00 | 42 | |
| 20260503185206 | 18 | 267 | 9.7 | 32.2 | 0.00 | 0.00 | 0.00 | 41 | |
| 20260503184205 | 17 | 293 | 16.1 | 38.6 | 0.00 | 0.00 | 0.00 | 42 | |
| 20260503183206 | 17 | 269 | 14.5 | 35.4 | 0.00 | 0.00 | 0.00 | 42 | |
| 20260503182206 | 18 | 231 | 11.3 | 27.4 | 0.00 | 0.00 | 0.00 | 41 | |
| 20260503181206 | 18 | 252 | 11.3 | 29.0 | 0.00 | 0.00 | 0.00 | 42 | |
| 20260503180206 | 17 | 291 | 11.3 | 29.0 | 0.00 | 0.00 | 0.00 | 42 | |
| 20260503175206 | 17 | 239 | 16.1 | 33.8 | 0.00 | 0.00 | 0.00 | 39 | |
| 20260503174206 | 17 | 256 | 9.7 | 27.4 | 0.00 | 0.00 | 0.00 | 43 | |
| 20260503173206 | 17 | 247 | 16.1 | 33.8 | 0.00 | 0.00 | 0.00 | 43 | |
| 20260503172206 | 17 | 231 | 9.7 | 25.7 | 0.00 | 0.00 | 0.00 | 48 | |
| 20260503171206 | 16 | 222 | 11.3 | 35.4 | 0.00 | 0.00 | 0.00 | 49 | |
| 20260503170206 | 16 | 246 | 12.9 | 33.8 | 0.00 | 0.00 | 0.00 | 48 | |
| 20260503160205 | 15 | 250 | 9.7 | 20.9 | 0.00 | 0.00 | 0.00 | 51 | |
| 20260503150206 | 13 | 216 | 8.0 | 20.9 | 0.00 | 0.00 | 0.00 | 61 | |
| 20260503140206 | 10 | 247 | 8.0 | 22.5 | 0.00 | 0.00 | 0.00 | 75 | |
| 20260503131206 | 10 | 253 | 11.3 | 25.7 | 0.00 | 0.00 | 0.00 | 70 | |
| 20260503130206 | 10 | 257 | 11.3 | 24.1 | 0.00 | 0.00 | 0.00 | 69 | |
| 20260503120209 | 10 | 258 | 8.0 | 16.1 | 0.00 | 0.00 | 0.00 | 61 | |
| 20260503110206 | 9 | 255 | 8.0 | 24.1 | 0.00 | 0.00 | 0.00 | 56 | |
| 20260503100206 | 10 | 242 | 8.0 | 20.9 | 0.00 | 0.00 | 0.00 | 52 | |
| 20260503090206 | 9 | 242 | 6.4 | 16.1 | 0.00 | 0.00 | 0.00 | 53 | |
| 20260503081206 | 8 | 236 | 4.8 | 12.9 | 0.00 | 0.00 | 0.00 | 54 | |
| 20260503080206 | 8 | 234 | 8.0 | 16.1 | 0.00 | 0.00 | 0.00 | 53 | |
| 20260503072205 | 8 | 261 | 3.2 | 14.5 | 0.00 | 0.00 | 0.00 | 53 | |
| 20260503071206 | 8 | 250 | 4.8 | 14.5 | 0.00 | 0.00 | 0.00 | 53 | |
| 20260503070205 | 8 | 253 | 4.8 | 14.5 | 0.00 | 0.00 | 0.00 | 53 | |
| 20260503060206 | 9 | 239 | 4.8 | 20.9 | 0.00 | 0.00 | 0.00 | 49 | |
| 20260503054206 | 9 | 224 | 6.4 | 14.5 | 0.00 | 0.00 | 0.00 | 50 | |
| 20260503053207 | 9 | 219 | 8.0 | 16.1 | 0.00 | 0.00 | 0.00 | 49 |